Location: Nairn
(57.5833°N, 3.8667°W)
Time: 04:58:44
(UTC+00:00)

Altair - Pass Details

Date: 01 December 2020
Orbit: 1501 x 1682 km, 47.2° (Epoch: 17 January)

Event Time Altitude Azimuth Distance (km) Brightness Sun altitude
Rises 19:23:35 0° 202° (SSW) 4,731 10.3 -28.9°
Reaches altitude 10° 19:27:28 10° 189° (S) 3,722 9.5 -29.4°
Enters shadow 19:31:55 21° 162° (SSE) 2,921 8.7 -30.0°
